Time,TemperatureF,DewpointF,PressureIn,WindDirection,WindDirectionDegrees,WindSpeedMPH,WindSpeedGustMPH,Humidity,HourlyPrecipIn,Conditions,Clouds,dailyrainin,SolarRadiationWatts/m^2,SoftwareType,DateUTC
2013-09-06 00:02:00,78.3,63.8,30.06,SE,136,1.0,1.0,61,0.00,,---,0.00,0.00,VWS V14.00,2013-09-06 05:02:00,
2013-09-06 00:07:00,78.1,64.0,30.06,SE,136,0.0,0.0,62,0.00,,---,0.00,0.00,VWS V14.00,2013-09-06 05:07:00,
2013-09-06 00:12:00,77.7,63.7,30.06,SE,136,1.0,1.0,62,0.00,,---,0.00,0.00,VWS V14.00,2013-09-06 05:12:00,
2013-09-06 00:17:00,77.3,63.7,30.06,SE,136,1.0,2.0,63,0.00,,---,0.00,0.00,VWS V14.00,2013-09-06 05:17:00,
2013-09-06 00:22:00,76.9,63.4,30.06,SE,136,1.0,1.0,63,0.00,,---,0.00,0.00,VWS V14.00,2013-09-06 05:22:00,
2013-09-06 00:26:00,76.6,64.0,30.06,SE,136,1.0,1.0,65,0.00,,---,0.00,0.00,VWS V14.00,2013-09-06 05:26:00,
2013-09-06 00:31:00,76.4,63.8,30.06,SE,136,0.0,0.0,65,0.00,,---,0.00,0.00,VWS V14.00,2013-09-06 05:31:00,
2013-09-06 00:36:00,76.2,63.6,30.06,SE,136,1.0,1.0,65,0.00,,---,0.00,0.00,VWS V14.00,2013-09-06 05:36:00,
2013-09-06 00:41:00,76.1,63.9,30.06,SE,136,0.0,1.0,66,0.00,,---,0.00,0.00,VWS V14.00,2013-09-06 05:41:00,
2013-09-06 00:46:00,75.8,63.6,30.06,SE,136,1.0,1.0,66,0.00,,---,0.00,0.00,VWS V14.00,2013-09-06 05:46:00,
2013-09-06 00:51:00,75.7,64.0,30.06,SE,136,0.0,0.0,67,0.00,,---,0.00,0.00,VWS V14.00,2013-09-06 05:51:00,
2013-09-06 00:56:00,75.6,63.9,30.06,SE,136,0.0,0.0,67,0.00,,---,0.00,0.00,VWS V14.00,2013-09-06 05:56:00,
2013-09-06 01:01:00,75.5,63.8,30.06,SE,136,1.0,2.0,67,0.00,,---,0.00,0.00,VWS V14.00,2013-09-06 06:01:00,
2013-09-06 01:06:00,75.4,64.1,30.05,SE,136,0.0,0.0,68,0.00,,---,0.00,0.00,VWS V14.00,2013-09-06 06:06:00,
2013-09-06 01:11:00,75.3,64.0,30.05,SE,136,0.0,0.0,68,0.00,,---,0.00,0.00,VWS V14.00,2013-09-06 06:11:00,
2013-09-06 01:16:00,75.1,64.2,30.05,SE,136,0.0,0.0,69,0.00,,---,0.00,0.00,VWS V14.00,2013-09-06 06:16:00,
2013-09-06 01:21:00,75.0,64.6,30.05,SE,136,0.0,0.0,70,0.00,,---,0.00,0.00,VWS V14.00,2013-09-06 06:21:00,
2013-09-06 01:26:00,74.9,64.9,30.05,SE,136,0.0,0.0,71,0.00,,---,0.00,0.00,VWS V14.00,2013-09-06 06:26:00,
2013-09-06 01:31:00,74.8,64.0,30.05,SE,136,0.0,0.0,69,0.00,,---,0.00,0.00,VWS V14.00,2013-09-06 06:31:00,
2013-09-06 01:36:00,74.5,64.5,30.06,SE,136,0.0,0.0,71,0.00,,---,0.00,0.00,VWS V14.00,2013-09-06 06:36:00,
2013-09-06 01:41:00,73.9,64.3,30.05,East,98,2.0,2.0,72,0.00,,---,0.00,0.00,VWS V14.00,2013-09-06 06:41:00,
2013-09-06 01:46:00,73.5,64.3,30.05,East,98,0.0,0.0,73,0.00,,---,0.00,0.00,VWS V14.00,2013-09-06 06:46:00,
2013-09-06 01:51:00,73.4,64.2,30.05,East,98,0.0,0.0,73,0.00,,---,0.00,0.00,VWS V14.00,2013-09-06 06:51:00,
2013-09-06 01:56:00,73.2,64.4,30.05,East,98,1.0,2.0,74,0.00,,---,0.00,0.00,VWS V14.00,2013-09-06 06:56:00,
2013-09-06 02:01:00,72.9,64.1,30.05,East,98,1.0,1.0,74,0.00,,---,0.00,0.00,VWS V14.00,2013-09-06 07:01:00,
2013-09-06 02:06:00,72.8,64.4,30.05,NNW,336,1.0,2.0,75,0.00,,---,0.00,0.00,VWS V14.00,2013-09-06 07:06:00,
2013-09-06 02:11:00,72.6,64.2,30.05,NNW,336,0.0,0.0,75,0.00,,---,0.00,0.00,VWS V14.00,2013-09-06 07:11:00,
2013-09-06 02:16:00,72.6,64.2,30.05,NNW,336,0.0,0.0,75,0.00,,---,0.00,0.00,VWS V14.00,2013-09-06 07:16:00,
2013-09-06 02:21:00,72.6,64.2,30.05,NNW,336,0.0,0.0,75,0.00,,---,0.00,0.00,VWS V14.00,2013-09-06 07:21:00,
2013-09-06 02:26:00,72.6,64.6,30.05,NNW,336,1.0,1.0,76,0.00,,---,0.00,0.00,VWS V14.00,2013-09-06 07:26:00,
2013-09-06 02:31:00,72.7,64.7,30.04,NNW,336,0.0,1.0,76,0.00,,---,0.00,0.00,VWS V14.00,2013-09-06 07:31:00,
2013-09-06 02:36:00,72.6,64.2,30.04,NNW,336,0.0,1.0,75,0.00,,---,0.00,0.00,VWS V14.00,2013-09-06 07:36:00,
2013-09-06 02:41:00,72.7,64.7,30.04,NNW,336,0.0,1.0,76,0.00,,---,0.00,0.00,VWS V14.00,2013-09-06 07:41:00,
2013-09-06 02:46:00,72.8,64.4,30.04,NNW,336,1.0,1.0,75,0.00,,---,0.00,0.00,VWS V14.00,2013-09-06 07:46:00,
2013-09-06 02:51:00,72.8,64.4,30.04,NNW,336,1.0,1.0,75,0.00,,---,0.00,0.00,VWS V14.00,2013-09-06 07:51:00,
2013-09-06 02:56:00,72.8,64.8,30.04,NNE,27,1.0,2.0,76,0.00,,---,0.00,0.00,VWS V14.00,2013-09-06 07:56:00,
2013-09-06 03:01:00,72.8,64.4,30.04,NNE,27,0.0,1.0,75,0.00,,---,0.00,0.00,VWS V14.00,2013-09-06 08:01:00,
2013-09-06 03:06:00,72.6,64.6,30.04,NNE,27,2.0,2.0,76,0.00,,---,0.00,0.00,VWS V14.00,2013-09-06 08:06:00,
2013-09-06 03:11:00,72.3,64.3,30.04,NNE,27,1.0,1.0,76,0.00,,---,0.00,0.00,VWS V14.00,2013-09-06 08:11:00,
2013-09-06 03:16:00,72.1,64.5,30.04,NNE,27,1.0,1.0,77,0.00,,---,0.00,0.00,VWS V14.00,2013-09-06 08:16:00,
2013-09-06 03:21:00,72.0,64.8,30.04,ESE,103,1.0,1.0,78,0.00,,---,0.00,0.00,VWS V14.00,2013-09-06 08:21:00,
2013-09-06 03:26:00,71.9,64.7,30.04,ESE,103,0.0,0.0,78,0.00,,---,0.00,0.00,VWS V14.00,2013-09-06 08:26:00,
2013-09-06 03:31:00,71.8,64.6,30.04,ESE,103,1.0,2.0,78,0.00,,---,0.00,0.00,VWS V14.00,2013-09-06 08:31:00,
2013-09-06 03:36:00,71.5,63.9,30.04,ESE,103,1.0,1.0,77,0.00,,---,0.00,0.00,VWS V14.00,2013-09-06 08:36:00,
2013-09-06 03:41:00,71.4,64.2,30.04,ESE,103,2.0,2.0,78,0.00,,---,0.00,0.00,VWS V14.00,2013-09-06 08:41:00,
2013-09-06 03:46:00,71.2,64.0,30.04,ESE,103,1.0,2.0,78,0.00,,---,0.00,0.00,VWS V14.00,2013-09-06 08:46:00,
2013-09-06 03:51:00,71.0,64.2,30.04,ESE,103,0.0,1.0,79,0.00,,---,0.00,0.00,VWS V14.00,2013-09-06 08:51:00,
2013-09-06 03:56:00,70.8,64.0,30.04,ESE,103,0.0,0.0,79,0.00,,---,0.00,0.00,VWS V14.00,2013-09-06 08:56:00,
2013-09-06 04:01:00,70.7,64.2,30.04,ESE,103,0.0,1.0,80,0.00,,---,0.00,0.00,VWS V14.00,2013-09-06 09:01:00,
2013-09-06 04:06:00,70.6,64.1,30.04,ESE,103,0.0,1.0,80,0.00,,---,0.00,0.00,VWS V14.00,2013-09-06 09:06:00,
2013-09-06 04:11:00,70.5,64.0,30.04,ESE,103,0.0,0.0,80,0.00,,---,0.00,0.00,VWS V14.00,2013-09-06 09:11:00,
2013-09-06 04:16:00,70.5,64.4,30.04,ESE,103,1.0,1.0,81,0.00,,---,0.00,0.00,VWS V14.00,2013-09-06 09:16:00,
2013-09-06 04:21:00,70.5,64.4,30.04,ESE,103,0.0,1.0,81,0.00,,---,0.00,0.00,VWS V14.00,2013-09-06 09:21:00,
2013-09-06 04:26:00,70.5,64.4,30.04,ESE,103,0.0,0.0,81,0.00,,---,0.00,0.00,VWS V14.00,2013-09-06 09:26:00,
2013-09-06 04:31:00,70.5,64.4,30.03,ESE,103,0.0,0.0,81,0.00,,---,0.00,0.00,VWS V14.00,2013-09-06 09:31:00,
2013-09-06 04:36:00,70.4,63.9,30.04,ESE,103,0.0,0.0,80,0.00,,---,0.00,0.00,VWS V14.00,2013-09-06 09:36:00,
2013-09-06 04:41:00,70.4,64.3,30.04,ESE,103,1.0,1.0,81,0.00,,---,0.00,0.00,VWS V14.00,2013-09-06 09:41:00,
2013-09-06 04:46:00,70.2,64.1,30.04,ESE,103,1.0,2.0,81,0.00,,---,0.00,0.00,VWS V14.00,2013-09-06 09:46:00,
2013-09-06 04:51:00,69.9,63.8,30.04,ESE,103,0.0,1.0,81,0.00,,---,0.00,0.00,VWS V14.00,2013-09-06 09:51:00,
2013-09-06 04:56:00,69.8,63.7,30.04,ESE,103,0.0,0.0,81,0.00,,---,0.00,0.00,VWS V14.00,2013-09-06 09:56:00,
2013-09-06 05:01:00,69.7,63.6,30.04,ESE,103,0.0,0.0,81,0.00,,---,0.00,0.00,VWS V14.00,2013-09-06 10:01:00,
2013-09-06 05:06:00,69.6,63.5,30.04,ESE,103,0.0,0.0,81,0.00,,---,0.00,0.00,VWS V14.00,2013-09-06 10:06:00,
2013-09-06 05:11:00,69.6,63.9,30.04,ESE,103,0.0,0.0,82,0.00,,---,0.00,0.00,VWS V14.00,2013-09-06 10:11:00,
2013-09-06 05:16:00,69.5,64.1,30.04,ESE,103,1.0,1.0,83,0.00,,---,0.00,0.00,VWS V14.00,2013-09-06 10:16:00,
2013-09-06 05:21:00,69.4,64.0,30.04,ESE,103,2.0,2.0,83,0.00,,---,0.00,0.00,VWS V14.00,2013-09-06 10:21:00,
2013-09-06 05:26:00,69.5,64.1,30.04,ESE,103,1.0,2.0,83,0.00,,---,0.00,0.00,VWS V14.00,2013-09-06 10:26:00,
2013-09-06 05:31:00,69.5,64.1,30.04,ESE,103,1.0,2.0,83,0.00,,---,0.00,0.00,VWS V14.00,2013-09-06 10:31:00,
2013-09-06 05:36:00,69.6,64.2,30.04,ESE,103,1.0,2.0,83,0.00,,---,0.00,0.00,VWS V14.00,2013-09-06 10:36:00,
2013-09-06 05:41:00,69.7,64.3,30.04,ESE,103,2.0,2.0,83,0.00,,---,0.00,0.00,VWS V14.00,2013-09-06 10:41:00,
2013-09-06 05:46:00,69.6,63.9,30.04,ESE,103,1.0,2.0,82,0.00,,---,0.00,0.00,VWS V14.00,2013-09-06 10:46:00,
2013-09-06 05:51:00,69.5,63.8,30.04,ESE,103,0.0,1.0,82,0.00,,---,0.00,0.00,VWS V14.00,2013-09-06 10:51:00,
2013-09-06 05:56:00,69.5,63.8,30.04,ESE,103,0.0,1.0,82,0.00,,---,0.00,0.00,VWS V14.00,2013-09-06 10:56:00,
2013-09-06 06:01:00,69.4,64.0,30.04,ESE,103,0.0,1.0,83,0.00,,---,0.00,0.00,VWS V14.00,2013-09-06 11:01:00,
2013-09-06 06:06:00,69.4,64.0,30.05,ESE,103,0.0,1.0,83,0.00,,---,0.00,0.00,VWS V14.00,2013-09-06 11:06:00,
2013-09-06 06:11:00,69.3,63.9,30.05,ESE,103,0.0,0.0,83,0.00,,---,0.00,0.00,VWS V14.00,2013-09-06 11:11:00,
2013-09-06 06:16:00,69.2,63.8,30.05,ESE,103,1.0,1.0,83,0.00,,---,0.00,0.00,VWS V14.00,2013-09-06 11:16:00,
2013-09-06 06:21:00,69.0,63.6,30.05,ESE,103,1.0,1.0,83,0.00,,---,0.00,0.00,VWS V14.00,2013-09-06 11:21:00,
2013-09-06 06:26:00,69.0,63.6,30.05,ESE,103,0.0,0.0,83,0.00,,---,0.00,0.00,VWS V14.00,2013-09-06 11:26:00,
2013-09-06 06:31:00,68.9,63.5,30.05,ESE,103,0.0,0.0,83,0.00,,---,0.00,0.00,VWS V14.00,2013-09-06 11:31:00,
2013-09-06 06:36:00,68.8,63.4,30.05,ESE,103,0.0,0.0,83,0.00,,---,0.00,0.00,VWS V14.00,2013-09-06 11:36:00,
2013-09-06 06:41:00,68.5,63.1,30.05,ESE,103,0.0,0.0,83,0.00,,---,0.00,0.00,VWS V14.00,2013-09-06 11:41:00,
2013-09-06 06:46:00,68.3,62.9,30.06,ESE,103,1.0,2.0,83,0.00,,---,0.00,0.00,VWS V14.00,2013-09-06 11:46:00,
2013-09-06 06:51:00,68.2,63.2,30.06,ESE,103,0.0,1.0,84,0.00,,---,0.00,5.00,VWS V14.00,2013-09-06 11:51:00,
2013-09-06 06:56:00,68.2,63.5,30.06,ESE,103,1.0,2.0,85,0.00,,---,0.00,9.00,VWS V14.00,2013-09-06 11:56:00,
2013-09-06 07:01:00,68.4,64.1,30.07,SE,132,1.0,1.0,86,0.00,,---,0.00,14.00,VWS V14.00,2013-09-06 12:01:00,
2013-09-06 07:06:00,68.5,64.2,30.06,SE,132,1.0,1.0,86,0.00,,---,0.00,23.00,VWS V14.00,2013-09-06 12:06:00,
2013-09-06 07:11:00,68.6,64.2,30.07,SE,132,1.0,1.0,86,0.00,,---,0.00,28.00,VWS V14.00,2013-09-06 12:11:00,
2013-09-06 07:16:00,68.7,64.3,30.07,SE,132,0.0,0.0,86,0.00,,---,0.00,33.00,VWS V14.00,2013-09-06 12:16:00,
2013-09-06 07:21:00,68.8,64.4,30.07,SE,132,0.0,0.0,86,0.00,,---,0.00,40.00,VWS V14.00,2013-09-06 12:21:00,
2013-09-06 07:26:00,69.1,64.4,30.07,SE,139,1.0,2.0,85,0.00,,---,0.00,54.00,VWS V14.00,2013-09-06 12:26:00,
2013-09-06 07:31:00,69.4,64.7,30.07,SE,139,1.0,1.0,85,0.00,,---,0.00,69.00,VWS V14.00,2013-09-06 12:31:00,
2013-09-06 07:36:00,69.7,64.7,30.07,SE,139,2.0,3.0,84,0.00,,---,0.00,93.00,VWS V14.00,2013-09-06 12:36:00,
2013-09-06 07:41:00,70.2,65.1,30.07,SE,141,2.0,2.0,84,0.00,,---,0.00,105.00,VWS V14.00,2013-09-06 12:41:00,
2013-09-06 07:46:00,70.7,65.3,30.08,SE,132,2.0,3.0,83,0.00,,---,0.00,86.00,VWS V14.00,2013-09-06 12:46:00,
2013-09-06 07:51:00,71.4,65.6,30.08,SE,127,1.0,2.0,82,0.00,,---,0.00,77.00,VWS V14.00,2013-09-06 12:51:00,
2013-09-06 07:56:00,71.9,65.8,30.08,SE,127,2.0,2.0,81,0.00,,---,0.00,60.00,VWS V14.00,2013-09-06 12:56:00,
2013-09-06 08:01:00,72.3,66.8,30.07,SE,127,1.0,2.0,83,0.00,,---,0.00,63.00,VWS V14.00,2013-09-06 13:01:00,
2013-09-06 08:06:00,72.6,66.8,30.08,ESE,108,2.0,2.0,82,0.00,,---,0.00,178.00,VWS V14.00,2013-09-06 13:06:00,
2013-09-06 08:11:00,73.1,67.3,30.08,NE,53,2.0,2.0,82,0.00,,---,0.00,130.00,VWS V14.00,2013-09-06 13:11:00,
2013-09-06 08:16:00,73.7,67.9,30.08,NE,53,0.0,2.0,82,0.00,,---,0.00,216.00,VWS V14.00,2013-09-06 13:16:00,
2013-09-06 08:21:00,74.3,68.1,30.08,NE,53,2.0,2.0,81,0.00,,---,0.00,234.00,VWS V14.00,2013-09-06 13:21:00,
2013-09-06 08:26:00,74.9,68.3,30.08,NE,53,2.0,2.0,80,0.00,,---,0.00,253.00,VWS V14.00,2013-09-06 13:26:00,
2013-09-06 08:31:00,75.3,68.3,30.08,NE,46,3.0,3.0,79,0.00,,---,0.00,264.00,VWS V14.00,2013-09-06 13:31:00,
2013-09-06 08:36:00,75.9,68.6,30.08,NE,46,1.0,1.0,78,0.00,,---,0.00,234.00,VWS V14.00,2013-09-06 13:36:00,
2013-09-06 08:41:00,76.4,68.7,30.08,NE,46,1.0,2.0,77,0.00,,---,0.00,264.00,VWS V14.00,2013-09-06 13:41:00,
2013-09-06 08:46:00,76.9,69.5,30.08,NE,46,1.0,2.0,78,0.00,,---,0.00,311.00,VWS V14.00,2013-09-06 13:46:00,
2013-09-06 08:51:00,77.6,69.8,30.08,NE,51,1.0,2.0,77,0.00,,---,0.00,327.00,VWS V14.00,2013-09-06 13:51:00,
2013-09-06 08:56:00,78.3,70.1,30.08,East,97,2.0,2.0,76,0.00,,---,0.00,339.00,VWS V14.00,2013-09-06 13:56:00,
2013-09-06 09:01:00,79.2,71.0,30.08,South,182,1.0,3.0,76,0.00,,---,0.00,360.00,VWS V14.00,2013-09-06 14:01:00,
2013-09-06 09:06:00,80.3,71.7,30.09,South,181,3.0,5.0,75,0.00,,---,0.00,374.00,VWS V14.00,2013-09-06 14:06:00,
2013-09-06 09:11:00,81.0,71.9,30.09,SE,140,2.0,3.0,74,0.00,,---,0.00,383.00,VWS V14.00,2013-09-06 14:11:00,
2013-09-06 09:16:00,81.6,71.7,30.09,South,188,2.0,3.0,72,0.00,,---,0.00,315.00,VWS V14.00,2013-09-06 14:16:00,
2013-09-06 09:21:00,82.2,72.3,30.09,SSE,151,4.0,6.0,72,0.00,,---,0.00,424.00,VWS V14.00,2013-09-06 14:21:00,
2013-09-06 09:26:00,82.9,72.1,30.09,South,175,2.0,3.0,70,0.00,,---,0.00,441.00,VWS V14.00,2013-09-06 14:26:00,
2013-09-06 09:31:00,83.6,72.8,30.09,ESE,115,1.0,3.0,70,0.00,,---,0.00,457.00,VWS V14.00,2013-09-06 14:31:00,
2013-09-06 09:36:00,84.3,72.6,30.09,SE,132,3.0,3.0,68,0.00,,---,0.00,476.00,VWS V14.00,2013-09-06 14:36:00,
2013-09-06 09:41:00,84.8,72.6,30.09,South,175,3.0,4.0,67,0.00,,---,0.00,438.00,VWS V14.00,2013-09-06 14:41:00,
2013-09-06 09:46:00,85.2,72.6,30.09,WSW,237,2.0,2.0,66,0.00,,---,0.00,499.00,VWS V14.00,2013-09-06 14:46:00,
2013-09-06 09:51:00,85.5,72.8,30.09,South,178,1.0,2.0,66,0.00,,---,0.00,515.00,VWS V14.00,2013-09-06 14:51:00,
2013-09-06 09:56:00,86.0,72.9,30.09,SW,218,1.0,2.0,65,0.00,,---,0.00,529.00,VWS V14.00,2013-09-06 14:56:00,
2013-09-06 10:01:00,86.3,72.7,30.09,SSW,193,1.0,4.0,64,0.00,,---,0.00,548.00,VWS V14.00,2013-09-06 15:01:00,
2013-09-06 10:06:00,86.8,72.7,30.09,SW,227,0.0,1.0,63,0.00,,---,0.00,482.00,VWS V14.00,2013-09-06 15:06:00,
2013-09-06 10:11:00,87.2,73.1,30.09,SE,142,0.0,1.0,63,0.00,,---,0.00,573.00,VWS V14.00,2013-09-06 15:11:00,
2013-09-06 10:16:00,87.9,72.8,30.09,SE,124,2.0,3.0,61,0.00,,---,0.00,585.00,VWS V14.00,2013-09-06 15:16:00,
2013-09-06 10:21:00,88.4,72.8,30.09,West,261,2.0,3.0,60,0.00,,---,0.00,585.00,VWS V14.00,2013-09-06 15:21:00,
2013-09-06 10:26:00,88.7,73.0,30.09,South,187,2.0,3.0,60,0.00,,---,0.00,608.00,VWS V14.00,2013-09-06 15:26:00,
2013-09-06 10:31:00,89.1,72.9,30.09,SSE,155,2.0,2.0,59,0.00,,---,0.00,622.00,VWS V14.00,2013-09-06 15:31:00,
2013-09-06 10:36:00,89.7,73.0,30.09,SSW,203,3.0,3.0,58,0.00,,---,0.00,635.00,VWS V14.00,2013-09-06 15:36:00,
2013-09-06 10:41:00,90.3,73.0,30.09,WSW,253,4.0,4.0,57,0.00,,---,0.00,647.00,VWS V14.00,2013-09-06 15:41:00,
2013-09-06 10:46:00,90.5,72.1,30.09,South,186,2.0,4.0,55,0.00,,---,0.00,657.00,VWS V14.00,2013-09-06 15:46:00,
2013-09-06 10:51:00,90.9,72.0,30.09,ESE,121,2.0,4.0,54,0.00,,---,0.00,668.00,VWS V14.00,2013-09-06 15:51:00,
2013-09-06 10:56:00,91.4,72.4,30.09,SE,125,2.0,2.0,54,0.00,,---,0.00,687.00,VWS V14.00,2013-09-06 15:56:00,
2013-09-06 11:01:00,92.0,72.4,30.09,ENE,71,0.0,1.0,53,0.00,,---,0.00,693.00,VWS V14.00,2013-09-06 16:01:00,
2013-09-06 11:06:00,92.4,72.8,30.09,NW,305,1.0,2.0,53,0.00,,---,0.00,698.00,VWS V14.00,2013-09-06 16:06:00,
2013-09-06 11:11:00,92.5,71.8,30.09,North,350,2.0,3.0,51,0.00,,---,0.00,701.00,VWS V14.00,2013-09-06 16:11:00,
2013-09-06 11:16:00,92.4,71.7,30.09,NE,38,3.0,3.0,51,0.00,,---,0.00,710.00,VWS V14.00,2013-09-06 16:16:00,
2013-09-06 11:21:00,92.6,72.4,30.09,SSE,167,4.0,4.0,52,0.00,,---,0.00,738.00,VWS V14.00,2013-09-06 16:21:00,
2013-09-06 11:26:00,93.0,72.8,30.09,ENE,76,2.0,2.0,52,0.00,,---,0.00,752.00,VWS V14.00,2013-09-06 16:26:00,
2013-09-06 11:31:00,92.8,72.0,30.08,NNE,15,2.0,4.0,51,0.00,,---,0.00,772.00,VWS V14.00,2013-09-06 16:31:00,
2013-09-06 11:36:00,92.6,71.8,30.08,NE,44,0.0,1.0,51,0.00,,---,0.00,765.00,VWS V14.00,2013-09-06 16:36:00,
2013-09-06 11:41:00,93.0,72.2,30.08,NW,325,1.0,1.0,51,0.00,,---,0.00,789.00,VWS V14.00,2013-09-06 16:41:00,
2013-09-06 11:46:00,92.9,70.9,30.08,WSW,244,5.0,6.0,49,0.00,,---,0.00,244.00,VWS V14.00,2013-09-06 16:46:00,
2013-09-06 11:51:00,92.5,70.6,30.08,WNW,294,1.0,2.0,49,0.00,,---,0.00,174.00,VWS V14.00,2013-09-06 16:51:00,
2013-09-06 11:56:00,92.3,69.8,30.08,SSW,211,0.0,1.0,48,0.00,,---,0.00,186.00,VWS V14.00,2013-09-06 16:56:00,
2013-09-06 12:01:00,92.3,70.4,30.08,West,263,2.0,3.0,49,0.00,,---,0.00,842.00,VWS V14.00,2013-09-06 17:01:00,
2013-09-06 12:06:00,92.6,70.1,30.08,SW,236,5.0,6.0,48,0.00,,---,0.00,868.00,VWS V14.00,2013-09-06 17:06:00,
2013-09-06 12:10:00,93.0,70.4,30.07,North,5,2.0,2.0,48,0.00,,---,0.00,853.00,VWS V14.00,2013-09-06 17:10:00,
2013-09-06 12:15:00,93.2,70.6,30.07,WSW,255,4.0,4.0,48,0.00,,---,0.00,197.00,VWS V14.00,2013-09-06 17:15:00,
2013-09-06 12:20:00,93.1,69.9,30.07,South,184,3.0,3.0,47,0.00,,---,0.00,188.00,VWS V14.00,2013-09-06 17:20:00,
2013-09-06 12:25:00,93.0,69.2,30.07,SSE,165,3.0,3.0,46,0.00,,---,0.00,193.00,VWS V14.00,2013-09-06 17:25:00,
2013-09-06 12:30:00,92.8,68.4,30.07,SSE,147,6.0,6.0,45,0.00,,---,0.00,218.00,VWS V14.00,2013-09-06 17:30:00,
2013-09-06 12:35:00,92.9,68.4,30.06,SSE,166,4.0,4.0,45,0.00,,---,0.00,290.00,VWS V14.00,2013-09-06 17:35:00,
2013-09-06 12:40:00,93.6,68.4,30.06,SSE,161,4.0,5.0,44,0.00,,---,0.00,914.00,VWS V14.00,2013-09-06 17:40:00,
2013-09-06 12:45:00,94.7,68.1,30.06,SW,230,2.0,3.0,42,0.00,,---,0.00,942.00,VWS V14.00,2013-09-06 17:45:00,
2013-09-06 12:50:00,95.5,68.1,30.06,South,180,4.0,4.0,41,0.00,,---,0.00,914.00,VWS V14.00,2013-09-06 17:50:00,
2013-09-06 12:55:00,96.3,70.2,30.06,SW,221,0.0,1.0,43,0.00,,---,0.00,881.00,VWS V14.00,2013-09-06 17:55:00,
2013-09-06 13:00:00,96.4,67.4,30.06,ESE,103,4.0,6.0,39,0.00,,---,0.00,907.00,VWS V14.00,2013-09-06 18:00:00,
2013-09-06 13:05:00,96.4,65.9,30.05,SE,144,2.0,4.0,37,0.00,,---,0.00,914.00,VWS V14.00,2013-09-06 18:05:00,
2013-09-06 13:10:00,96.9,66.3,30.05,West,261,3.0,3.0,37,0.00,,---,0.00,895.00,VWS V14.00,2013-09-06 18:10:00,
2013-09-06 13:15:00,97.5,64.4,30.05,WSW,239,2.0,2.0,34,0.00,,---,0.00,874.00,VWS V14.00,2013-09-06 18:15:00,
2013-09-06 13:20:00,97.3,63.4,30.05,NW,322,5.0,5.0,33,0.00,,---,0.00,888.00,VWS V14.00,2013-09-06 18:20:00,
2013-09-06 13:25:00,97.1,65.7,30.04,NW,316,2.0,2.0,36,0.00,,---,0.00,881.00,VWS V14.00,2013-09-06 18:25:00,
2013-09-06 13:30:00,97.1,68.8,30.04,North,360,4.0,4.0,40,0.00,,---,0.00,868.00,VWS V14.00,2013-09-06 18:30:00,
2013-09-06 13:35:00,96.8,67.0,30.03,NNE,19,9.0,9.0,38,0.00,,---,0.00,868.00,VWS V14.00,2013-09-06 18:35:00,
2013-09-06 13:40:00,96.1,67.2,30.04,North,355,5.0,5.0,39,0.00,,---,0.00,831.00,VWS V14.00,2013-09-06 18:40:00,
2013-09-06 13:45:00,96.0,67.1,30.03,NNW,338,4.0,5.0,39,0.00,,---,0.00,830.00,VWS V14.00,2013-09-06 18:45:00,
2013-09-06 13:50:00,95.9,65.5,30.03,NNW,328,1.0,1.0,37,0.00,,---,0.00,475.00,VWS V14.00,2013-09-06 18:50:00,
2013-09-06 13:55:00,95.7,65.3,30.03,North,350,4.0,4.0,37,0.00,,---,0.00,798.00,VWS V14.00,2013-09-06 18:55:00,
2013-09-06 14:00:00,95.5,65.1,30.03,NNE,23,2.0,2.0,37,0.00,,---,0.00,178.00,VWS V14.00,2013-09-06 19:00:00,
2013-09-06 14:05:00,95.4,65.8,30.02,North,5,0.0,1.0,38,0.00,,---,0.00,171.00,VWS V14.00,2013-09-06 19:05:00,
2013-09-06 14:10:00,95.4,65.0,30.02,WNW,292,4.0,4.0,37,0.00,,---,0.00,204.00,VWS V14.00,2013-09-06 19:10:00,
2013-09-06 14:15:00,95.1,65.5,30.02,WSW,252,1.0,2.0,38,0.00,,---,0.00,742.00,VWS V14.00,2013-09-06 19:15:00,
2013-09-06 14:20:00,95.4,66.5,30.02,NE,43,2.0,4.0,39,0.00,,---,0.00,800.00,VWS V14.00,2013-09-06 19:20:00,
2013-09-06 14:25:00,95.9,64.7,30.02,SSE,157,4.0,4.0,36,0.00,,---,0.00,784.00,VWS V14.00,2013-09-06 19:25:00,
2013-09-06 14:30:00,96.7,65.4,30.01,South,186,6.0,6.0,36,0.00,,---,0.00,807.00,VWS V14.00,2013-09-06 19:30:00,
2013-09-06 14:35:00,97.4,66.0,30.01,SW,229,5.0,5.0,36,0.00,,---,0.00,795.00,VWS V14.00,2013-09-06 19:35:00,
2013-09-06 14:40:00,97.9,65.6,30.01,West,276,2.0,3.0,35,0.00,,---,0.00,791.00,VWS V14.00,2013-09-06 19:40:00,
2013-09-06 14:45:00,98.2,65.1,30.01,SW,234,5.0,5.0,34,0.00,,---,0.00,779.00,VWS V14.00,2013-09-06 19:45:00,
2013-09-06 14:50:00,98.2,64.2,30.00,SW,215,1.0,2.0,33,0.00,,---,0.00,752.00,VWS V14.00,2013-09-06 19:50:00,
2013-09-06 14:55:00,98.4,65.2,30.00,WNW,288,3.0,4.0,34,0.00,,---,0.00,752.00,VWS V14.00,2013-09-06 19:55:00,
2013-09-06 15:00:00,98.5,64.4,30.00,South,190,5.0,5.0,33,0.00,,---,0.00,751.00,VWS V14.00,2013-09-06 20:00:00,
2013-09-06 15:05:00,98.9,64.8,29.99,SW,225,1.0,1.0,33,0.00,,---,0.00,752.00,VWS V14.00,2013-09-06 20:05:00,
2013-09-06 15:10:00,99.4,65.2,29.99,SSW,199,3.0,4.0,33,0.00,,---,0.00,745.00,VWS V14.00,2013-09-06 20:10:00,
2013-09-06 15:15:00,99.6,64.5,29.99,WSW,246,4.0,5.0,32,0.00,,---,0.00,717.00,VWS V14.00,2013-09-06 20:15:00,
2013-09-06 15:20:00,99.1,65.0,29.98,WSW,244,4.0,5.0,33,0.00,,---,0.00,721.00,VWS V14.00,2013-09-06 20:20:00,
2013-09-06 15:25:00,98.9,65.7,29.99,NW,313,4.0,4.0,34,0.00,,---,0.00,703.00,VWS V14.00,2013-09-06 20:25:00,
2013-09-06 15:30:00,98.6,64.5,29.98,West,265,0.0,1.0,33,0.00,,---,0.00,701.00,VWS V14.00,2013-09-06 20:30:00,
2013-09-06 15:35:00,98.9,64.8,29.98,SSW,198,3.0,3.0,33,0.00,,---,0.00,705.00,VWS V14.00,2013-09-06 20:35:00,
2013-09-06 15:40:00,99.5,66.2,29.98,West,270,4.0,4.0,34,0.00,,---,0.00,701.00,VWS V14.00,2013-09-06 20:40:00,
2013-09-06 15:45:00,99.8,63.8,29.98,WNW,296,1.0,1.0,31,0.00,,---,0.00,670.00,VWS V14.00,2013-09-06 20:45:00,
2013-09-06 15:50:00,99.9,63.9,29.97,ENE,65,3.0,3.0,31,0.00,,---,0.00,657.00,VWS V14.00,2013-09-06 20:50:00,
2013-09-06 15:55:00,99.2,63.3,29.97,ESE,108,2.0,3.0,31,0.00,,---,0.00,629.00,VWS V14.00,2013-09-06 20:55:00,
2013-09-06 16:00:00,99.3,64.3,29.97,NNW,328,2.0,2.0,32,0.00,,---,0.00,621.00,VWS V14.00,2013-09-06 21:00:00,
2013-09-06 16:05:00,99.1,64.1,29.97,SE,128,2.0,3.0,32,0.00,,---,0.00,599.00,VWS V14.00,2013-09-06 21:05:00,
2013-09-06 16:10:00,98.9,63.9,29.97,East,81,5.0,5.0,32,0.00,,---,0.00,589.00,VWS V14.00,2013-09-06 21:10:00,
2013-09-06 16:15:00,98.5,63.6,29.97,East,88,3.0,5.0,32,0.00,,---,0.00,577.00,VWS V14.00,2013-09-06 21:15:00,
2013-09-06 16:20:00,98.3,63.4,29.96,ESE,106,3.0,3.0,32,0.00,,---,0.00,174.00,VWS V14.00,2013-09-06 21:20:00,
2013-09-06 16:25:00,98.2,63.3,29.96,ESE,105,2.0,2.0,32,0.00,,---,0.00,520.00,VWS V14.00,2013-09-06 21:25:00,
2013-09-06 16:30:00,98.4,64.4,29.96,SSE,158,1.0,1.0,33,0.00,,---,0.00,531.00,VWS V14.00,2013-09-06 21:30:00,
2013-09-06 16:35:00,98.4,63.5,29.96,East,92,2.0,5.0,32,0.00,,---,0.00,496.00,VWS V14.00,2013-09-06 21:35:00,
2013-09-06 16:40:00,98.0,64.0,29.96,ENE,72,5.0,7.0,33,0.00,,---,0.00,355.00,VWS V14.00,2013-09-06 21:40:00,
2013-09-06 16:45:00,97.5,63.6,29.96,ENE,63,4.0,4.0,33,0.00,,---,0.00,160.00,VWS V14.00,2013-09-06 21:45:00,
2013-09-06 16:50:00,96.8,63.8,29.96,ENE,72,2.0,3.0,34,0.00,,---,0.00,144.00,VWS V14.00,2013-09-06 21:50:00,
2013-09-06 16:55:00,96.3,62.5,29.96,East,94,2.0,2.0,33,0.00,,---,0.00,141.00,VWS V14.00,2013-09-06 21:55:00,
2013-09-06 17:00:00,96.2,62.5,29.96,East,94,1.0,1.0,33,0.00,,---,0.00,127.00,VWS V14.00,2013-09-06 22:00:00,
2013-09-06 17:05:00,96.2,64.1,29.96,East,94,0.0,1.0,35,0.00,,---,0.00,125.00,VWS V14.00,2013-09-06 22:05:00,
2013-09-06 17:10:00,96.2,66.5,29.96,NE,46,2.0,2.0,38,0.00,,---,0.00,380.00,VWS V14.00,2013-09-06 22:10:00,
2013-09-06 17:15:00,96.2,64.9,29.96,East,91,2.0,3.0,36,0.00,,---,0.00,348.00,VWS V14.00,2013-09-06 22:15:00,
2013-09-06 17:20:00,96.3,64.2,29.96,East,81,1.0,2.0,35,0.00,,---,0.00,304.00,VWS V14.00,2013-09-06 22:20:00,
2013-09-06 17:25:00,96.4,63.5,29.96,ENE,57,0.0,2.0,34,0.00,,---,0.00,306.00,VWS V14.00,2013-09-06 22:25:00,
2013-09-06 17:30:00,96.3,66.6,29.96,East,89,2.0,3.0,38,0.00,,---,0.00,301.00,VWS V14.00,2013-09-06 22:30:00,
2013-09-06 17:35:00,96.1,64.8,29.96,East,84,2.0,2.0,36,0.00,,---,0.00,281.00,VWS V14.00,2013-09-06 22:35:00,
2013-09-06 17:40:00,95.9,64.7,29.96,NE,51,2.0,4.0,36,0.00,,---,0.00,241.00,VWS V14.00,2013-09-06 22:40:00,
2013-09-06 17:45:00,95.9,63.9,29.96,NE,51,1.0,2.0,35,0.00,,---,0.00,160.00,VWS V14.00,2013-09-06 22:45:00,
2013-09-06 17:50:00,95.9,66.2,29.96,NE,51,1.0,2.0,38,0.00,,---,0.00,134.00,VWS V14.00,2013-09-06 22:50:00,
2013-09-06 17:55:00,95.7,66.8,29.96,NE,51,1.0,1.0,39,0.00,,---,0.00,200.00,VWS V14.00,2013-09-06 22:55:00,
2013-09-06 18:00:00,95.5,62.7,29.96,NE,51,1.0,1.0,34,0.00,,---,0.00,186.00,VWS V14.00,2013-09-06 23:00:00,
2013-09-06 18:05:00,95.6,62.8,29.96,NE,51,1.0,1.0,34,0.00,,---,0.00,176.00,VWS V14.00,2013-09-06 23:05:00,
2013-09-06 18:10:00,95.7,64.5,29.96,NE,51,1.0,2.0,36,0.00,,---,0.00,165.00,VWS V14.00,2013-09-06 23:10:00,
2013-09-06 18:15:00,95.8,63.0,29.96,NE,51,0.0,1.0,34,0.00,,---,0.00,151.00,VWS V14.00,2013-09-06 23:15:00,
2013-09-06 18:20:00,95.9,63.0,29.96,NE,51,0.0,1.0,34,0.00,,---,0.00,137.00,VWS V14.00,2013-09-06 23:20:00,
2013-09-06 18:25:00,95.9,62.2,29.96,NE,51,0.0,0.0,33,0.00,,---,0.00,120.00,VWS V14.00,2013-09-06 23:25:00,
2013-09-06 18:30:00,96.0,64.8,29.96,ESE,105,1.0,2.0,36,0.00,,---,0.00,104.00,VWS V14.00,2013-09-06 23:30:00,
2013-09-06 18:35:00,96.1,65.6,29.96,ESE,116,2.0,3.0,37,0.00,,---,0.00,90.00,VWS V14.00,2013-09-06 23:35:00,
2013-09-06 18:40:00,96.1,64.0,29.96,ESE,116,2.0,2.0,35,0.00,,---,0.00,76.00,VWS V14.00,2013-09-06 23:40:00,
2013-09-06 18:45:00,95.9,65.5,29.95,SSE,158,1.0,3.0,37,0.00,,---,0.00,63.00,VWS V14.00,2013-09-06 23:45:00,
2013-09-06 18:50:00,95.5,65.1,29.95,SSE,164,2.0,3.0,37,0.00,,---,0.00,51.00,VWS V14.00,2013-09-06 23:50:00,
2013-09-06 18:55:00,95.0,65.4,29.95,SSE,157,2.0,2.0,38,0.00,,---,0.00,33.00,VWS V14.00,2013-09-06 23:55:00,
2013-09-06 19:00:00,94.6,65.8,29.95,SSE,157,2.0,3.0,39,0.00,,---,0.00,28.00,VWS V14.00,2013-09-07 00:00:00,
2013-09-06 19:05:00,93.9,65.2,29.95,SSE,148,3.0,4.0,39,0.00,,---,0.00,23.00,VWS V14.00,2013-09-07 00:05:00,
2013-09-06 19:10:00,93.3,65.4,29.95,South,169,2.0,4.0,40,0.00,,---,0.00,19.00,VWS V14.00,2013-09-07 00:10:00,
2013-09-06 19:15:00,92.7,65.6,29.95,South,170,2.0,3.0,41,0.00,,---,0.00,14.00,VWS V14.00,2013-09-07 00:15:00,
2013-09-06 19:20:00,92.0,65.6,29.95,SE,142,3.0,4.0,42,0.00,,---,0.00,9.00,VWS V14.00,2013-09-07 00:20:00,
2013-09-06 19:25:00,91.4,65.8,29.95,SE,138,2.0,3.0,43,0.00,,---,0.00,5.00,VWS V14.00,2013-09-07 00:25:00,
2013-09-06 19:30:00,90.8,65.2,29.95,ESE,115,2.0,2.0,43,0.00,,---,0.00,0.00,VWS V14.00,2013-09-07 00:30:00,
2013-09-06 19:35:00,90.5,65.6,29.95,ESE,115,2.0,3.0,44,0.00,,---,0.00,0.00,VWS V14.00,2013-09-07 00:35:00,
2013-09-06 19:40:00,90.1,65.9,29.95,SE,136,2.0,3.0,45,0.00,,---,0.00,0.00,VWS V14.00,2013-09-07 00:40:00,
2013-09-06 19:45:00,89.7,66.2,29.95,SE,133,1.0,2.0,46,0.00,,---,0.00,0.00,VWS V14.00,2013-09-07 00:45:00,
2013-09-06 19:50:00,89.3,66.4,29.95,SE,138,2.0,3.0,47,0.00,,---,0.00,0.00,VWS V14.00,2013-09-07 00:50:00,
2013-09-06 19:55:00,88.9,66.1,29.96,SSE,147,3.0,3.0,47,0.00,,---,0.00,0.00,VWS V14.00,2013-09-07 00:55:00,
2013-09-06 20:00:00,88.5,66.3,29.96,SE,132,2.0,2.0,48,0.00,,---,0.00,0.00,VWS V14.00,2013-09-07 01:00:00,
2013-09-06 20:05:00,88.0,66.5,29.96,SE,140,2.0,3.0,49,0.00,,---,0.00,0.00,VWS V14.00,2013-09-07 01:05:00,
2013-09-06 20:10:00,87.8,66.3,29.96,SE,142,1.0,2.0,49,0.00,,---,0.00,0.00,VWS V14.00,2013-09-07 01:10:00,
2013-09-06 20:15:00,87.5,66.6,29.96,SE,142,2.0,2.0,50,0.00,,---,0.00,0.00,VWS V14.00,2013-09-07 01:15:00,
2013-09-06 20:20:00,87.2,66.9,29.97,SE,142,3.0,3.0,51,0.00,,---,0.00,0.00,VWS V14.00,2013-09-07 01:20:00,
2013-09-06 20:25:00,86.8,66.5,29.97,SE,136,2.0,3.0,51,0.00,,---,0.00,0.00,VWS V14.00,2013-09-07 01:25:00,
2013-09-06 20:30:00,86.5,66.8,29.97,SE,130,3.0,5.0,52,0.00,,---,0.00,0.00,VWS V14.00,2013-09-07 01:30:00,
2013-09-06 20:35:00,86.1,67.0,29.98,SE,128,2.0,3.0,53,0.00,,---,0.00,0.00,VWS V14.00,2013-09-07 01:35:00,
2013-09-06 20:40:00,85.9,67.9,29.98,SE,134,3.0,6.0,55,0.00,,---,0.00,0.00,VWS V14.00,2013-09-07 01:40:00,
2013-09-06 20:45:00,85.7,67.7,29.98,SE,127,5.0,6.0,55,0.00,,---,0.00,0.00,VWS V14.00,2013-09-07 01:45:00,
2013-09-06 20:50:00,85.6,68.1,29.98,SE,132,4.0,4.0,56,0.00,,---,0.00,0.00,VWS V14.00,2013-09-07 01:50:00,
2013-09-06 20:55:00,85.4,68.4,29.98,SE,130,5.0,6.0,57,0.00,,---,0.00,0.00,VWS V14.00,2013-09-07 01:55:00,
2013-09-06 21:00:00,85.2,68.8,29.98,SE,143,5.0,5.0,58,0.00,,---,0.00,0.00,VWS V14.00,2013-09-07 02:00:00,
2013-09-06 21:05:00,85.1,69.2,29.98,SSE,148,4.0,4.0,59,0.00,,---,0.00,0.00,VWS V14.00,2013-09-07 02:05:00,
2013-09-06 21:10:00,85.0,69.6,29.98,SE,131,2.0,6.0,60,0.00,,---,0.00,0.00,VWS V14.00,2013-09-07 02:10:00,
2013-09-06 21:15:00,84.9,69.5,29.98,SE,140,4.0,5.0,60,0.00,,---,0.00,0.00,VWS V14.00,2013-09-07 02:15:00,
2013-09-06 21:20:00,84.8,69.4,29.99,SE,130,3.0,3.0,60,0.00,,---,0.00,0.00,VWS V14.00,2013-09-07 02:20:00,
2013-09-06 21:25:00,84.7,69.8,29.99,SSE,149,2.0,2.0,61,0.00,,---,0.00,0.00,VWS V14.00,2013-09-07 02:25:00,
2013-09-06 21:30:00,84.5,69.6,29.99,SE,130,1.0,2.0,61,0.00,,---,0.00,0.00,VWS V14.00,2013-09-07 02:30:00,
2013-09-06 21:35:00,84.3,69.4,29.99,SE,125,1.0,2.0,61,0.00,,---,0.00,0.00,VWS V14.00,2013-09-07 02:35:00,
2013-09-06 21:40:00,84.2,69.8,29.99,SE,125,2.0,2.0,62,0.00,,---,0.00,0.00,VWS V14.00,2013-09-07 02:40:00,
2013-09-06 21:45:00,84.0,69.6,29.99,SSE,156,3.0,3.0,62,0.00,,---,0.00,0.00,VWS V14.00,2013-09-07 02:45:00,
2013-09-06 21:50:00,83.8,69.4,29.99,SSE,155,2.0,3.0,62,0.00,,---,0.00,0.00,VWS V14.00,2013-09-07 02:50:00,
2013-09-06 21:55:00,83.7,69.8,29.99,SSE,155,1.0,1.0,63,0.00,,---,0.00,0.00,VWS V14.00,2013-09-07 02:55:00,
2013-09-06 22:00:00,83.5,69.6,29.99,SSE,155,2.0,2.0,63,0.00,,---,0.00,0.00,VWS V14.00,2013-09-07 03:00:00,
2013-09-06 22:05:00,83.3,69.9,29.99,SE,137,3.0,4.0,64,0.00,,---,0.00,0.00,VWS V14.00,2013-09-07 03:05:00,
2013-09-06 22:10:00,83.2,69.8,29.99,SE,137,0.0,2.0,64,0.00,,---,0.00,0.00,VWS V14.00,2013-09-07 03:10:00,
2013-09-06 22:15:00,83.0,69.6,29.99,SE,137,1.0,2.0,64,0.00,,---,0.00,0.00,VWS V14.00,2013-09-07 03:15:00,
2013-09-06 22:20:00,82.9,69.5,29.99,SE,137,1.0,2.0,64,0.00,,---,0.00,0.00,VWS V14.00,2013-09-07 03:20:00,
2013-09-06 22:25:00,82.7,69.8,29.99,SE,138,1.0,2.0,65,0.00,,---,0.00,0.00,VWS V14.00,2013-09-07 03:25:00,
2013-09-06 22:30:00,82.6,69.7,29.99,SSE,155,1.0,2.0,65,0.00,,---,0.00,0.00,VWS V14.00,2013-09-07 03:30:00,
2013-09-06 22:35:00,82.4,69.5,29.99,SSE,155,2.0,2.0,65,0.00,,---,0.00,0.00,VWS V14.00,2013-09-07 03:35:00,
2013-09-06 22:40:00,82.2,69.7,29.99,SSE,155,2.0,2.0,66,0.00,,---,0.00,0.00,VWS V14.00,2013-09-07 03:40:00,
2013-09-06 22:45:00,82.1,69.6,29.99,SSE,164,0.0,1.0,66,0.00,,---,0.00,0.00,VWS V14.00,2013-09-07 03:45:00,
2013-09-06 22:50:00,81.9,69.4,29.99,South,188,1.0,2.0,66,0.00,,---,0.00,0.00,VWS V14.00,2013-09-07 03:50:00,
2013-09-06 22:55:00,81.8,68.9,29.99,South,181,1.0,2.0,65,0.00,,---,0.00,0.00,VWS V14.00,2013-09-07 03:55:00,
2013-09-06 23:00:00,81.6,69.2,29.99,ESE,102,2.0,2.0,66,0.00,,---,0.00,0.00,VWS V14.00,2013-09-07 04:00:00,
2013-09-06 23:01:00,81.6,69.2,29.99,East,95,2.0,3.0,66,0.00,,---,0.00,0.00,VWS V14.00,2013-09-07 04:01:00,
2013-09-06 23:02:00,81.4,69.4,29.99,East,95,2.0,3.0,67,0.00,,---,0.00,0.00,VWS V14.00,2013-09-07 04:02:00,
2013-09-06 23:07:00,80.5,69.4,29.99,East,92,1.0,2.0,69,0.00,,---,0.00,0.00,VWS V14.00,2013-09-07 04:07:00,
2013-09-06 23:12:00,79.9,69.7,29.99,East,92,1.0,1.0,71,0.00,,---,0.00,0.00,VWS V14.00,2013-09-07 04:12:00,
2013-09-06 23:17:00,79.5,69.7,29.99,East,92,1.0,1.0,72,0.00,,---,0.00,0.00,VWS V14.00,2013-09-07 04:17:00,
2013-09-06 23:22:00,79.1,69.3,29.99,East,92,0.0,1.0,72,0.00,,---,0.00,0.00,VWS V14.00,2013-09-07 04:22:00,
2013-09-06 23:27:00,78.6,69.2,29.99,East,92,2.0,2.0,73,0.00,,---,0.00,0.00,VWS V14.00,2013-09-07 04:27:00,
2013-09-06 23:32:00,78.2,69.2,29.99,East,92,1.0,2.0,74,0.00,,---,0.00,0.00,VWS V14.00,2013-09-07 04:32:00,
2013-09-06 23:37:00,78.0,69.1,29.99,East,92,1.0,1.0,74,0.00,,---,0.00,0.00,VWS V14.00,2013-09-07 04:37:00,
2013-09-06 23:42:00,78.0,69.1,29.99,East,92,1.0,2.0,74,0.00,,---,0.00,0.00,VWS V14.00,2013-09-07 04:42:00,
2013-09-06 23:47:00,78.0,69.1,29.99,East,92,0.0,1.0,74,0.00,,---,0.00,0.00,VWS V14.00,2013-09-07 04:47:00,
2013-09-06 23:52:00,78.0,69.1,29.99,East,92,1.0,1.0,74,0.00,,---,0.00,0.00,VWS V14.00,2013-09-07 04:52:00,
2013-09-06 23:57:00,77.9,68.9,29.99,East,92,0.0,0.0,74,0.00,,---,0.00,0.00,VWS V14.00,2013-09-07 04:57:00,